Location: Arcones
(41.1182°N, 3.7238°W)
Time: 04:11:29
(UTC+00:00)

Cosmos-2242 - Pass Details

Date: 11 December 2025
Orbit: 566 x 591 km, 82.5° (Epoch: 13 January)

Event Time Altitude Azimuth Distance (km) Brightness Sun altitude
Rises 18:28:54 0° 183° (S) 2,804 6.7 -18.6°
Reaches altitude 10° 18:31:05 10° 182° (S) 1,910 5.8 -19.0°
Maximum altitude 18:35:18 77° 97° (E) 610 2.8 -19.8°
Enters shadow 18:37:25 29° 14° (NNE) 1,100 4.1 -20.2°
